Location: Juzet
(42.9779°N, 0.7597°E)
Time: 03:01:38
(UTC+00:00)

Cosmos 407 Rocket - Pass Details

Date: 14 July 2020
Orbit: 743 x 786 km, 74.0° (Epoch: 04 August)

Event Time Altitude Azimuth Distance (km) Brightness Sun altitude
Exits shadow 00:55:13 34° 123° (ESE) 1,263 4.4 -24.3°
Maximum altitude 00:56:05 37° 102° (ESE) 1,210 4.5 -24.2°
Drops below altitude 10° 01:00:58 10° 36° (NE) 2,354 6.9 -24.0°
Sets 01:03:31 0° 28° (NNE) 3,286 8.1 -23.9°
